Find SNUGLITE-2

NORAD ID: 52899 Int'l Des: 2022-065 Owner: SNU Country: KR operational
LEOCIRCULARRETROGRADESSO

当前视图

正在加载3D地球...

关于 SNUGLITE-2

正在加载描述...

即将过境

Passes for default location (London). Set your location on the main map for personalized predictions.

高度历史

Loading altitude history...

两行轨道根数

1 52899U 22065F 26149.37660385 .00001200 00000-0 23652-3 0 9992
2 52899 98.2177 294.2435 0008774 84.9622 275.2582 14.64307095208241
Epoch: May 29, 2026 • Age: 21 hours

当前状态

高度 690.0 km
速度 7.51 km/s
星下点 -23.82°S, 42.75°W
发射日期 Jun 21, 2022
运行时间 3.9 years
类型 other

技术详情

分类 Payload
质量 4.00 kg
干质量 4.00 kg
总质量 4.00 kg
长度 0.30 m
直径 0.10 m
跨度 0.40 m
形状 Box+boom
制造商 SNU
平台类型 Cubesat 3U
阶段状态 In Orbit
所有者/国家 SNU/KR

Most Searched